This demonstration page uses our WeatherBlox Daily Observations layout. Learn more.

Left ArrowRight Arrow

53.62937, 11.41316

Hourly Observations for August 22, 2021

Temp ( °F °C ) Dew Point ( °F °C ) Humidity (%) Winds ( mph kmh ) Pressure ( in mb ) Visibility ( mi km ) Precip ( " mm )
7:50 am 07:50 Partly Cloudy 61 16 50 10 68 68 E 7 11 30.00 1016 30 48 N/A
8:20 am 08:20 Partly Cloudy 61 16 50 10 68 68 E 8 13 30.00 1016 30 48 N/A
8:50 am 08:50 Partly Cloudy 61 16 50 10 68 68 E 8 13 30.00 1016 30 48 N/A
9:20 am 09:20 Partly Cloudy 61 16 50 10 68 68 E 7 11 30.00 1016 30 48 N/A
9:50 am 09:50 Partly Cloudy with Light Rain 61 16 50 10 68 68 E 8 13 30.00 1016 30 48 N/A
10:20 am 10:20 Mostly Sunny 61 16 52 11 72 72 E 8 13 30.00 1016 30 48 N/A
10:50 am 10:50 Mostly Sunny 63 17 52 11 68 68 E 3 6 30.00 1016 7 11 N/A
11:20 am 11:20 Partly Cloudy 63 17 52 11 68 68 E 7 11 30.03 1017 30 48 N/A
11:50 am 11:50 Mostly Cloudy 63 17 52 11 68 68 E 9 15 30.03 1017 30 48 N/A
12:20 pm 12:20 Mostly Sunny 63 17 52 11 68 68 E 10 17 30.00 1016 7 11 N/A
12:50 pm 12:50 Mostly Sunny 63 17 52 11 68 68 E 7 11 30.03 1017 30 48 N/A
1:20 pm 13:20 Mostly Sunny 63 17 52 11 68 68 ENE 7 11 30.03 1017 30 48 N/A
1:50 pm 13:50 Mostly Sunny 63 17 54 12 73 73 ENE 7 11 30.03 1017 7 11 N/A
2:20 pm 14:20 Mostly Sunny 64 18 54 12 68 68 ENE 7 11 30.03 1017 7 11 N/A
2:50 pm 14:50 Partly Cloudy with Light Rain 63 17 55 13 77 77 ENE 7 11 30.03 1017 30 48 N/A
3:20 pm 15:20 Mostly Cloudy with Light Rain 63 17 55 13 77 77 ENE 5 7 30.03 1017 30 48 N/A
3:50 pm 15:50 Mostly Cloudy with Light Rain 63 17 57 14 83 83 ENE 6 9 30.03 1017 30 48 N/A
4:20 pm 16:20 Mostly Cloudy with Light Rain 63 17 57 14 83 83 E 5 7 30.03 1017 30 48 N/A
4:50 pm 16:50 Partly Cloudy with Light Rain 63 17 59 15 88 88 E 5 7 30.03 1017 30 48 N/A
5:20 pm 17:20 Partly Cloudy with Light Rain 63 17 59 15 88 88 NE 5 7 30.03 1017 30 48 N/A
5:50 pm 17:50 Mostly Cloudy with Light Rain 63 17 59 15 88 88 NE 5 7 30.03 1017 30 48 N/A
6:20 pm 18:20 Mostly Cloudy 63 17 57 14 83 83 NE 7 11 30.03 1017 30 48 N/A
6:50 pm 18:50 Mostly Sunny 61 16 57 14 88 88 NE 5 7 30.03 1017 30 48 N/A
7:20 pm 19:20 Partly Cloudy with Light Rain 61 16 57 14 88 88 NE 5 7 30.03 1017 30 48 N/A
7:50 pm 19:50 Partly Cloudy with Light Rain 61 16 59 15 94 94 NNE 3 6 30.03 1017 30 48 N/A
8:20 pm 20:20 Partly Cloudy with Light Rain 61 16 59 15 94 94 NNE 5 7 30.03 1017 30 48 N/A
8:50 pm 20:50 Partly Cloudy 61 16 59 15 94 94 NNE 7 11 30.06 1018 30 48 N/A
9:20 pm 21:20 Partly Cloudy 59 15 59 15 100 100 NNE 7 11 30.06 1018 30 48 N/A
9:50 pm 21:50 Mostly Clear with Drizzle 59 15 57 14 94 94 NE 5 7 30.06 1018 30 48 N/A

Powered by AerisWeather